Race Analysis

 :: S58

Ver o tópico anterior Ver o tópico seguinte Ir em baixo

Race Analysis

Mensagem por Paulo Coutinho em Seg Maio 22, 2017 12:07 pm

Brno (Czech Republic), Season 58


Lap Lap time Pos Tyres Weather Temp (°) Hum (%) Events
0 - 8 Medium Partially Cloudy 26 23 -
1 1:48.428 9 Medium Partially Cloudy 26 23 -
2 1:41.402 8 Medium Partially Cloudy 26 23 -
3 1:40.986 8 Medium Partially Cloudy 26 23 -
4 1:40.787 8 Medium Partially Cloudy 26 23 -
5 1:41.063 8 Medium Partially Cloudy 26 23 -
6 1:41.585 8 Medium Partially Cloudy 26 23 -
7 1:40.920 8 Medium Partially Cloudy 26 23 -
8 1:40.791 8 Medium Partially Cloudy 26 24 -
9 1:41.760 7 Medium Partially Cloudy 26 24 -
10 1:40.728 6 Medium Partially Cloudy 26 24 -
11 1:40.373 6 Medium Partially Cloudy 26 24 -
12 1:41.148 5 Medium Partially Cloudy 26 24 -
13 1:40.255 4 Medium Partially Cloudy 26 24 -
14 1:40.458 4 Medium Partially Cloudy 26 24 -
15 1:39.526 4 Medium Partially Cloudy 26 24 -
16 1:39.342 4 Medium Partially Cloudy 26 24 -
17 1:39.564 4 Medium Partially Cloudy 26 24 -
18 1:39.810 4 Medium Partially Cloudy 27 24 -
19 1:46.803 4 Medium Partially Cloudy 27 24 Pit
20 2:10.821 4 Medium Partially Cloudy 28 24 -
21 1:40.998 4 Medium Partially Cloudy 28 24 -
22 1:41.055 3 Medium Partially Cloudy 27 24 -
23 1:40.928 3 Medium Partially Cloudy 27 24 -
24 1:40.834 3 Medium Partially Cloudy 26 24 -
25 1:40.861 3 Medium Partially Cloudy 25 24 -
26 1:41.007 3 Medium Partially Cloudy 25 24 -
27 1:40.743 3 Medium Partially Cloudy 25 24 -
28 1:40.588 3 Medium Cloudy 25 24 -
29 1:40.551 3 Medium Cloudy 25 24 -
30 1:39.186 3 Medium Cloudy 25 24 -
31 1:39.351 3 Medium Cloudy 25 24 -
32 1:39.301 3 Medium Cloudy 25 24 -
33 1:40.375 3 Medium Cloudy 25 24 -
34 1:40.349 3 Medium Cloudy 25 24 -
35 1:40.259 3 Medium Cloudy 25 24 -
36 1:39.780 3 Medium Cloudy 25 24 -
37 1:40.058 3 Medium Cloudy 25 24 -
38 1:46.741 3 Medium Cloudy 25 24 Pit
39 2:12.926 4 Medium Cloudy 25 24 -
40 1:41.187 4 Medium Cloudy 25 23 -
41 1:40.961 4 Medium Cloudy 25 22 -
42 1:40.561 4 Medium Cloudy 25 21 -
43 1:40.759 4 Medium Cloudy 25 21 -
44 1:40.550 3 Medium Cloudy 25 21 -
45 1:40.735 3 Medium Cloudy 24 21 -
46 1:40.580 3 Medium Cloudy 24 21 -
47 1:40.199 3 Medium Cloudy 24 21 -
48 1:40.549 3 Medium Cloudy 24 21 -
49 1:40.122 3 Medium Cloudy 24 21 -
50 1:39.410 3 Medium Cloudy 24 21 -
51 1:39.078 3 Medium Cloudy 24 21 -
52 1:39.476 3 Medium Cloudy 24 21 -
53 1:39.784 3 Medium Cloudy 24 21 -
54 1:39.848 3 Medium Cloudy 24 21 -
55 1:39.923 3 Medium Cloudy 23 21 -
56 1:39.764 3 Medium Cloudy 24 21 -
57 1:40.012 3 Medium Cloudy 24 21 -


Risks used:
Overtake Defend Clear & dry Clear & wet Malfunct
40 0 40 0 0

Setup used:
Front wing Rear wing Engine Brakes Gear Suspension
608 748 731 350 419 703

Cha Eng FWing RWing Underb Sidep Cool Gear Bra Susp Elec
Car parts level: 7 7 7 7 8 8 8 7 9 8 8
Car parts wear (at the start) (%): 74 37 12 12 32 60 52 70 49 48 10
Car parts wear (at the finish) (%): 91 73 31 28 56 82 73 91 88 72 27

Start fuel (liters): 68

Pit Pitstop reason Tyres condition (%) Fuel left (%) Refilled to (liters) Pit time (sec)
Stop 1 (Lap 19): No more fuel was left 20 1 68 liters 22.230
Stop 2 (Lap 38): No more fuel was left 20 1 68 liters 24.396

Tyres condition after finish (%): 21

Fuel left in the car after finish (liters): 2

Driver energy
90% 0%

_________________
Paulo Coutinho
avatar
Paulo Coutinho

Mensagens : 1715
Data de inscrição : 31/03/2015
Idade : 44

Ver perfil do usuário

Voltar ao Topo Ir em baixo

Re: Race Analysis

Mensagem por Gabriel Miranda em Ter Maio 23, 2017 11:22 am

Brno (Czech Republic), Época 58


Volta Tempo volta Pos Pneus Tempo Temp (°) Hum (%) Ocorrências
0 - 14 Duros Parcial/nublado 26 23 -
1 1:53.244 17 Duros Parcial/nublado 26 23 -
2 1:44.090 17 Duros Parcial/nublado 26 23 -
3 1:44.086 18 Duros Parcial/nublado 26 23 -
4 1:43.602 17 Duros Parcial/nublado 26 23 -
5 1:43.698 18 Duros Parcial/nublado 26 23 -
6 1:43.396 18 Duros Parcial/nublado 26 23 -
7 1:43.887 18 Duros Parcial/nublado 26 23 -
8 1:43.353 18 Duros Parcial/nublado 26 24 -
9 1:43.635 18 Duros Parcial/nublado 26 24 -
10 1:43.895 18 Duros Parcial/nublado 26 24 -
11 1:43.425 18 Duros Parcial/nublado 26 24 -
12 1:43.386 17 Duros Parcial/nublado 26 24 -
13 1:43.310 17 Duros Parcial/nublado 26 24 -
14 1:42.463 13 Duros Parcial/nublado 26 24 -
15 1:43.184 12 Duros Parcial/nublado 26 24 -
16 1:43.275 12 Duros Parcial/nublado 26 24 -
17 1:42.613 12 Duros Parcial/nublado 26 24 -
18 1:42.919 12 Duros Parcial/nublado 27 24 -
19 1:42.692 12 Duros Parcial/nublado 27 24 -
20 1:42.245 10 Duros Parcial/nublado 28 24 -
21 1:42.683 4 Duros Parcial/nublado 28 24 -
22 1:42.252 2 Duros Parcial/nublado 27 24 -
23 1:42.532 2 Duros Parcial/nublado 27 24 -
24 1:42.151 2 Duros Parcial/nublado 26 24 -
25 1:41.874 2 Duros Parcial/nublado 25 24 -
26 1:41.578 2 Duros Parcial/nublado 25 24 -
27 1:41.424 2 Duros Parcial/nublado 25 24 -
28 1:49.047 5 Duros Nublado 25 24 Pit
29 2:19.760 12 Duros Nublado 25 24 -
30 1:43.633 10 Duros Nublado 25 24 -
31 1:44.080 12 Duros Nublado 25 24 -
32 1:43.547 11 Duros Nublado 25 24 -
33 1:43.513 10 Duros Nublado 25 24 -
34 1:44.005 10 Duros Nublado 25 24 -
35 1:43.897 10 Duros Nublado 25 24 -
36 1:43.439 10 Duros Nublado 25 24 -
37 1:43.261 10 Duros Nublado 25 24 -
38 1:43.561 11 Duros Nublado 25 24 -
39 1:43.359 11 Duros Nublado 25 24 -
40 1:43.346 10 Duros Nublado 25 23 -
41 1:43.180 8 Duros Nublado 25 22 -
42 1:43.053 7 Duros Nublado 25 21 -
43 1:42.609 7 Duros Nublado 25 21 -
44 1:42.173 7 Duros Nublado 25 21 -
45 1:42.678 7 Duros Nublado 24 21 -
46 1:42.540 6 Duros Nublado 24 21 -
47 1:42.675 6 Duros Nublado 24 21 -
48 1:42.476 6 Duros Nublado 24 21 -
49 1:42.746 6 Duros Nublado 24 21 -
50 1:41.803 6 Duros Nublado 24 21 -
51 1:44.607 6 Duros Nublado 24 21 Problema no carro
52 1:44.966 6 Duros Nublado 24 21 Problema no carro
53 1:44.458 6 Duros Nublado 24 21 Problema no carro
54 1:44.738 6 Duros Nublado 24 21 Problema no carro
55 1:44.926 6 Duros Nublado 23 21 Problema no carro
56 1:44.806 6 Duros Nublado 24 21 Problema no carro
57 1:44.523 6 Duros Nublado 24 21 Problema no carro


Riscos usados:
Ultrapassagem Defesa Pista Livre e Seca Pista Livre e Chuva Avaria
20 20 0 0 0

Afinação usada:
Asa Dianteira Asa Traseira Motor Travões Caixa Suspensão
455 621 623 376 408 577

Cha Mot ADiant ATras Carroç Later Refrig Caixa Trav Susp Elec
Nível das peças: 6 6 6 6 6 6 6 6 6 6 6
Desgaste das Peças (no início) (%): 44 41 52 59 86 85 63 56 74 71 29
Desgaste das Peças (no final) (%): 58 68 68 72 99 99 77 73 94 87 40

Combustível inicíal (litros): 104

Pit Razão da paragem Estado pneus (%) Combust. restante (%) Reabast. até (litros) Tempo da paragem (seg)
Paragem 1 (Volta 28): Não havia mais combustível 20 1 110 litros 28.216
avatar
Gabriel Miranda

Mensagens : 927
Data de inscrição : 29/12/2014
Idade : 44

Ver perfil do usuário

Voltar ao Topo Ir em baixo

Ver o tópico anterior Ver o tópico seguinte Voltar ao Topo

- Tópicos similares

 :: S58

 
Permissão deste fórum:
Você não pode responder aos tópicos neste fórum